Beaufort, NC

6:21 AM EDT on October 17, 2017 (GMT -0400)
Smith

Weather History for KMRH - March, 2012

Change the Weather History Date:

Tuesday, March 6, 2012

  Actual Average Record
Temperature  
Mean Temperature 42 °F -  
Max Temperature 51 °F 62 °F 74 °F (1989)
Min Temperature 34 °F 43 °F 20 °F (1960)
Degree Days  
Heating Degree Days 22    
Moisture  
Dew Point 30 °F    
Average Humidity 60    
Maximum Humidity 79    
Minimum Humidity 38    
Precipitation  
Precipitation 0.00 in - - ()
Sea Level Pressure  
Sea Level Pressure 30.64 in    
Wind  
Wind Speed 8 mph (NNE)    
Max Wind Speed 13 mph    
Max Gust Speed 22 mph    
Visibility 10 miles    
Events      
Averages and records for this station are not official NWS values.
T = Trace of Precipitation, MM = Missing Value Source: NWS Daily Summary

Daily Weather History Graph

Daily Weather History Graph

Search for Another Location

Airport or City:

Trip Planner

Search our weather history database for the weather conditions in past years. The results will help you decide how hot, cold, wet, or windy it might be!

Date:

Astronomy

Mar. 06, 2012 Rise Set
Actual Time 6:28 AM EST 6:07 PM EST
Civil Twilight 6:03 AM EST 6:32 PM EST
Nautical Twilight 5:34 AM EST 7:01 PM EST
Astronomical Twilight 5:05 AM EST 7:31 PM EST
Moon 4:33 PM EST (3/6) 4:59 AM EST (3/6)
Length of Visible Light 12h 28m
Length of Day
11h 38m
Waxing Gibbous, 96% of the Moon is Illuminated
Mar 6
Waxing Gibbous
Mar 8
Full
Mar 14
Last Quarter
Mar 22
New
Mar 30
First Quarter

Hourly Weather History & Observations

Time (EST) Temp. Windchill Dew Point Humidity Pressure Visibility Wind Dir Wind Speed Gust Speed Precip Events Conditions
1:56 AM 39.0 °F 32.8 °F 28.9 °F 67% 30.52 in 10.0 mi North 9.2 mph - N/A   Clear
2:56 AM 39.0 °F 32.8 °F 27.0 °F 62% 30.53 in 10.0 mi North 9.2 mph - N/A   Clear
3:56 AM 37.0 °F 31.6 °F 27.0 °F 67% 30.54 in 10.0 mi North 6.9 mph - N/A   Clear
4:56 AM 36.0 °F 30.3 °F 28.0 °F 73% 30.57 in 10.0 mi North 6.9 mph - N/A   Clear
5:56 AM 34.0 °F 28.0 °F 28.0 °F 79% 30.60 in 10.0 mi North 6.9 mph - N/A   Clear
6:56 AM 35.1 °F 32.2 °F 28.9 °F 78% 30.62 in 10.0 mi North 3.5 mph - N/A   Clear
7:56 AM 41.0 °F 35.2 °F 30.0 °F 65% 30.65 in 10.0 mi NNE 9.2 mph - N/A   Clear
8:56 AM 44.1 °F 37.7 °F 28.0 °F 53% 30.67 in 10.0 mi NNE 12.7 mph 18.4 mph N/A   Clear
9:56 AM 46.0 °F 40.6 °F 27.0 °F 47% 30.68 in 10.0 mi NNE 11.5 mph 21.9 mph N/A   Clear
10:56 AM 48.0 °F - 26.1 °F 42% 30.69 in 10.0 mi NNE 11.5 mph - N/A   Clear
11:56 AM 48.9 °F - 28.0 °F 44% 30.69 in 10.0 mi NE 9.2 mph 18.4 mph N/A   Clear
1:56 PM 51.1 °F - 26.1 °F 38% 30.66 in 10.0 mi NE 10.4 mph 17.3 mph N/A   Clear
2:56 PM 51.1 °F - 28.0 °F 41% 30.65 in 10.0 mi NE 9.2 mph - N/A   Clear
3:56 PM 50.0 °F - 32.0 °F 50% 30.65 in 10.0 mi East 9.2 mph - N/A   Clear
4:56 PM 48.9 °F - 30.9 °F 50% 30.65 in 10.0 mi East 8.1 mph - N/A   Clear
5:56 PM 46.9 °F - 32.0 °F 56% 30.65 in 10.0 mi East 3.5 mph - N/A   Clear
6:56 PM 41.0 °F - 30.9 °F 67% 30.65 in 10.0 mi Calm Calm - N/A   Clear
7:56 PM 42.1 °F 39.2 °F 33.1 °F 70% 30.66 in 10.0 mi NNE 4.6 mph - N/A   Clear
8:56 PM 41.0 °F 37.1 °F 32.0 °F 70% 30.66 in 10.0 mi NNE 5.8 mph - N/A   Clear
9:56 PM 42.1 °F 38.4 °F 32.0 °F 67% 30.67 in 10.0 mi NNE 5.8 mph - N/A   Clear
10:56 PM 42.1 °F 38.4 °F 33.1 °F 70% 30.67 in 10.0 mi NNE 5.8 mph - N/A   Clear
11:56 PM 42.1 °F 40.2 °F 34.0 °F 73% 30.67 in 10.0 mi NNE 3.5 mph - N/A   Clear